Bellingham, WA

1:43 AM PDT on April 23, 2018 (GMT -0700)
Bellingham International

Weather History for KBLI - July, 2014

Change the Weather History Date:

Friday, July 25, 2014

  Actual Average Record
Temperature  
Mean Temperature 63 °F 63 °F  
Max Temperature 71 °F 72 °F 92 °F (1988)
Min Temperature 55 °F 54 °F 45 °F (1952)
Degree Days  
Heating Degree Days 2 2  
Month to date heating degree days 33 73  
Since 1 June heating degree days 169 274  
Cooling Degree Days 0 0  
Month to date cooling degree days 40 0  
Year to date cooling degree days 42 4  
Since 1 June cooling degree days 41 4  
Growing Degree Days 13 (Base 50)    
Moisture  
Dew Point 51 °F    
Average Humidity 67    
Maximum Humidity 86    
Minimum Humidity 47    
Precipitation  
Precipitation 0.00 in 0.03 in 0.88 in (1995)
Month to date precipitation 1.13 1.00  
Year to date precipitation 19.09 18.94  
Sea Level Pressure  
Sea Level Pressure 30.16 in    
Wind  
Wind Speed 5 mph (SSE)    
Max Wind Speed 10 mph    
Max Gust Speed 15 mph    
Visibility 10 miles    
Events      
T = Trace of Precipitation, MM = Missing Value Source: NWS Daily Summary

Daily Weather History Graph

Daily Weather History Graph

Search for Another Location

Airport or City:

Astronomy

Jul. 25, 2014 Rise Set
Actual Time 5:34 AM PDT 8:57 PM PDT
Civil Twilight 4:56 AM PDT 9:36 PM PDT
Nautical Twilight 4:05 AM PDT 10:26 PM PDT
Astronomical Twilight 2:57 AM PDT 11:33 PM PDT
Moon 4:42 AM PDT (7/25) 7:52 PM PDT (7/25)
Length of Visible Light 16h 39m
Length of Day
15h 22m
Waning Crescent, 1% of the Moon is Illuminated
Jul 25
Waning Crescent
Jul 26
New
Aug 3
First Quarter
Aug 10
Full
Aug 17
Last Quarter

Hourly Weather History & Observations

Time (PDT) Temp. Dew Point Humidity Pressure Visibility Wind Dir Wind Speed Gust Speed Precip Events Conditions
12:53 AM 55.9 °F 48.9 °F 77% 30.20 in 10.0 mi SSE 5.8 mph - N/A   Clear
1:53 AM 57.0 °F 50.0 °F 77% 30.19 in 10.0 mi SSE 6.9 mph - N/A   Clear
2:53 AM 57.0 °F 51.1 °F 81% 30.19 in 10.0 mi South 6.9 mph - N/A   Clear
3:53 AM 55.9 °F 51.1 °F 84% 30.19 in 10.0 mi SSE 5.8 mph - N/A   Partly Cloudy
4:31 AM 55.4 °F 51.8 °F 88% 30.17 in 10.0 mi South 5.8 mph - N/A   Mostly Cloudy
4:53 AM 57.0 °F 51.1 °F 81% 30.19 in 10.0 mi South 5.8 mph - N/A   Overcast
5:53 AM 57.0 °F 51.1 °F 81% 30.18 in 10.0 mi SSE 5.8 mph - N/A   Mostly Cloudy
6:14 AM 55.4 °F 51.8 °F 88% 30.16 in 10.0 mi ESE 4.6 mph - N/A   Scattered Clouds
6:50 AM 57.2 °F 51.8 °F 82% 30.16 in 10.0 mi East 5.8 mph - N/A   Mostly Cloudy
6:53 AM 57.0 °F 51.1 °F 81% 30.18 in 10.0 mi East 4.6 mph - N/A   Mostly Cloudy
7:23 AM 59.0 °F 51.8 °F 77% 30.16 in 10.0 mi East 4.6 mph - N/A   Scattered Clouds
7:53 AM 59.0 °F 51.1 °F 75% 30.18 in 10.0 mi South 5.8 mph - N/A   Scattered Clouds
8:53 AM 59.0 °F 53.1 °F 81% 30.18 in 10.0 mi Variable 4.6 mph - N/A   Partly Cloudy
9:53 AM 60.8 °F 51.8 °F 72% 30.16 in 10.0 mi SSE 8.1 mph - N/A   Clear
10:53 AM 62.1 °F 52.0 °F 70% 30.17 in 10.0 mi Variable 6.9 mph - N/A   Clear
11:53 AM 64.9 °F 50.0 °F 58% 30.17 in 10.0 mi South 5.8 mph - N/A   Clear
12:53 PM 66.9 °F 53.1 °F 61% 30.17 in 10.0 mi SSE 6.9 mph - N/A   Clear
1:53 PM 69.1 °F 50.0 °F 51% 30.16 in 10.0 mi South 6.9 mph - N/A   Clear
2:53 PM 70.0 °F 51.1 °F 51% 30.15 in 10.0 mi Variable 5.8 mph - N/A   Clear
3:53 PM 71.1 °F 51.1 °F 49% 30.14 in 10.0 mi West 5.8 mph - N/A   Clear
4:53 PM 70.0 °F 50.0 °F 49% 30.14 in 10.0 mi Variable 4.6 mph - N/A   Clear
5:53 PM 70.0 °F 50.0 °F 49% 30.12 in 10.0 mi Variable 3.5 mph - N/A   Clear
6:53 PM 70.0 °F 48.9 °F 47% 30.11 in 10.0 mi WNW 3.5 mph - N/A   Clear
7:53 PM 66.9 °F 51.1 °F 57% 30.10 in 10.0 mi Calm Calm - N/A   Clear
8:53 PM 62.1 °F 53.1 °F 72% 30.10 in 10.0 mi Calm Calm - N/A   Clear
9:53 PM 59.0 °F 54.0 °F 83% 30.11 in 10.0 mi South 3.5 mph - N/A   Clear
10:53 PM 59.0 °F 53.1 °F 81% 30.12 in 10.0 mi South 3.5 mph - N/A   Clear
11:53 PM 57.0 °F 52.0 °F 83% 30.12 in 10.0 mi Calm Calm - N/A   Clear